Regional Weather Roundup
Issued by NWS

Home | Current Version | Previous Version | Graphics & Text | Print | Product List | Glossary On
Versions: 1 2 3 4 5 6 7 8 9 10 11 12 13 14 15 16 17 18 19 20 21 22 23 24 25 26 27 28 29 30 31 32 33 34 35 36 37 38 39 40 41 42 43 44 45 46 47 48 49 50
000
ASUS44 KMEG 220200
RWRTN
TENNESSEE HOURLY STATE WEATHER ROUNDUP
NATIONAL WEATHER SERVICE MEMPHIS TN
900 PM CDT THU MAY 21 2015

TNZ002-004-019-021-049-052-054-088>092-220300-
WEST TENNESSEE

CITY           SKY/WX    TMP DP  RH WIND       PRES   REMARKS
MEMPHIS INTL   MOCLDY    55  44  66 NE7       30.21S
NWS MEMPHIS      N/A     51 N/A N/A MISG        N/A
JACKSON        CLEAR     51  46  83 NW3       30.20S
DYERSBURG      CLEAR     52  36  54 CALM      30.23R
PARIS          PTCLDY    48  45  87 CALM      30.21R
LEXINGTON      PTCLDY    50  46  87 CALM      30.19S
$$

TNZ008-025-027-028-033-062-065-066-220300-
NORTH MIDDLE TENNESSEE

CITY           SKY/WX    TMP DP  RH WIND       PRES   REMARKS
NASHVILLE      CLOUDY    55  45  68 VRB3      30.19R
CLARKSVILLE    PTCLDY    53  45  74 NW3       30.20R
COOKEVILLE     CLOUDY    54  48  82 CALM      30.16R
CROSSVILLE     CLOUDY    50  45  83 NW6       30.15R
$$

TNZ061-075-076-078-094-096-097-220300-
SOUTH MIDDLE TENNESSEE

CITY           SKY/WX    TMP DP  RH WIND       PRES   REMARKS
FAYETTEVILLE   CLOUDY   N/A N/A N/A MISG      30.17S
TULLAHOMA      MOCLDY    52  46  82 NW3       30.18R
WINCHESTER     CLOUDY    52  46  82 N8        30.17S
MCMINNVILLE    CLOUDY    54  48  82 N5        30.17R
COLUMBIA       PTCLDY    54  48  82 CALM      30.18R
SHELBYVILLE    CLOUDY    54  50  87 NW5       30.18S
$$

TNZ017-018-042-046-047-220300-
NORTHEAST TENNESSEE

CITY           SKY/WX    TMP DP  RH WIND       PRES   REMARKS
TRI CITIES     CLOUDY    56  48  74 NW9       30.09R
ELIZABETHTON   CLOUDY    54  46  76 W9        30.08R
$$

TNZ012-013-036-069-073-074-220300-
CENTRAL EAST TENNESSEE

CITY           SKY/WX    TMP DP  RH WIND       PRES   REMARKS
KNOXVILLE      CLOUDY    56  47  71 N10       30.12R
OAK RIDGE      CLOUDY    56  47  71 NW5       30.15R
GATLINBURG     CLOUDY    55  46  71 VRB6      30.12R
$$

TNZ083-085-099-220300-
SOUTHEAST TENNESSEE

CITY           SKY/WX    TMP DP  RH WIND       PRES   REMARKS
CHATTANOOGA    CLOUDY    57  46  66 NW14      30.15R
$$

SKY/WX REPORTED AS FAIR MEANS FEW OR NO CLOUDS BELOW
12 THOUSAND FEET.



USA.gov is the U.S. government's official web portal to all federal, state and local government web resources and services.